Starlink 6116

operational
NORAD ID: 56911 Int'l Des: 2023-083 Owner: SPXS Country: US Constellation: starlink
LEOCIRCULAR

About Starlink 6116

Description loading...

Live Position

Loading 3D Globe...

Upcoming Passes

Altitude History

Altitude vs Time

uPlot chart will show altitude changes over time

Two-Line Element Set

1 56911U 23083AM 25354.69539806 -.00001552 00000-0 -99864-4 0 9998
2 56911 42.9999 138.3489 0000344 200.4512 159.6317 15.02531823139934
Epoch: Dec 20, 2025 • Age: 11 hours

Current Status

Altitude 560.5 km
Velocity 7.59 km/s
Sub-Earth Point 33.56°N, 29.36°E
Launch Date Jun 12, 2023
Age 2.5 years
Type internet

Technical Details

Classification Payload
Mass 305.00 kg
Dry Mass 290.00 kg
Total Mass 305.00 kg
Length 0.20 m
Diameter 2.80 m
Span 9.00 m
Shape Box + pan
Manufacturer SPXS
Bus Type Starlink
Phase Status In Orbit
Owner/State SPXS/US

Large Constellations

Loading constellations...